DW6016 Weather Reports


time (UTC)temp
C
wind
direction
speed
KPH
gust
KPH
rain 1hr
cm
rain 24hr
cm
rain mn
cm
humidity
%
barometer
mb
20260510224921 20 300 0.0 0.0 0.00 0.00 0.00 57 1020.8
20260510224419 19 284 1.6 1.6 0.00 0.00 0.00 57 1020.9
20260510223915 20 303 1.6 3.2 0.00 0.00 0.00 57 1020.8
20260510223413 20 340 0.0 1.6 0.00 0.00 0.00 58 1020.7
20260510222910 20 311 3.2 3.2 0.00 0.00 0.00 56 1020.6
20260510222408 19 306 0.0 0.0 0.00 0.00 0.00 59 1020.8
20260510221902 19 86 0.0 1.6 0.00 0.00 0.00 58 1020.6
20260510221359 20 299 1.6 1.6 0.00 0.00 0.00 58 1020.7
20260510220855 20 308 0.0 1.6 0.00 0.00 0.00 58 1020.6
20260510220352 20 300 1.6 1.6 0.00 0.00 0.00 57 1020.8
20260510215848 20 323 0.0 1.6 0.00 0.00 0.00 59 1020.6
20260510215345 20 290 0.0 1.6 0.00 0.00 0.00 58 1020.6
20260510214843 20 295 1.6 3.2 0.00 0.00 0.00 58 1020.7
20260510214340 20 323 3.2 3.2 0.00 0.00 0.00 58 1020.8
20260510213837 19 295 1.6 3.2 0.00 0.00 0.00 60 1020.9
20260510213333 18 288 0.0 1.6 0.00 0.00 0.00 65 1021.1
20260510212830 18 306 1.6 1.6 0.00 0.00 0.00 61 1021.1
20260510212327 19 314 0.0 0.0 0.00 0.00 0.00 62 1020.8
20260510211824 19 13 1.6 3.2 0.00 0.00 0.00 64 1021.2
20260510211320 18 295 0.0 1.6 0.00 0.00 0.00 66 1021.0
20260510210815 18 285 3.2 3.2 0.00 0.00 0.00 64 1020.9
20260510210310 18 298 4.8 4.8 0.00 0.00 0.00 63 1020.7
20260510205810 19 307 0.0 1.6 0.00 0.00 0.00 62 1020.8
20260510205307 18 319 1.6 1.6 0.00 0.00 0.00 64 1020.9
20260510204801 19 306 4.8 4.8 0.00 0.00 0.00 62 1021.0
20260510204258 19 281 1.6 1.6 0.00 0.00 0.00 65 1020.7
20260510203755 19 310 1.6 1.6 0.00 0.00 0.00 63 1020.8
20260510203253 18 320 0.0 1.6 0.00 0.00 0.00 66 1021.0
20260510202752 18 168 1.6 1.6 0.00 0.00 0.00 67 1020.8
20260510202248 18 312 1.6 3.2 0.00 0.00 0.00 66 1020.6
20260510201746 18 322 1.6 1.6 0.00 0.00 0.00 70 1020.6
20260510201242 18 34 1.6 3.2 0.00 0.00 0.00 65 1020.7
20260510200739 18 305 0.0 0.0 0.00 0.00 0.00 65 1020.5
20260510200237 19 327 1.6 1.6 0.00 0.00 0.00 65 1020.7
20260510195733 19 298 0.0 0.0 0.00 0.00 0.00 67 1020.9
20260510195230 18 305 4.8 4.8 0.00 0.00 0.00 66 1020.8
20260510194729 17 301 1.6 1.6 0.00 0.00 0.00 69 1021.1
20260510194226 17 343 0.0 1.6 0.00 0.00 0.00 69 1020.9
20260510193721 17 312 1.6 1.6 0.00 0.00 0.00 69 1020.8
20260510193216 17 206 1.6 3.2 0.00 0.00 0.00 69 1020.7
20260510192712 17 342 1.6 3.2 0.00 0.00 0.00 71 1020.8
20260510192208 17 342 1.6 1.6 0.00 0.00 0.00 72 1020.7
20260510191704 16 261 1.6 1.6 0.00 0.00 0.00 73 1020.6
20260510191201 16 348 0.0 1.6 0.00 0.00 0.00 72 1020.8
20260510190658 17 325 0.0 0.0 0.00 0.00 0.00 72 1021.0
20260510190155 16 324 0.0 0.0 0.00 0.00 0.00 73 1020.7
20260510185652 16 344 1.6 1.6 0.00 0.00 0.00 72 1020.6
20260510185150 16 193 1.6 3.2 0.00 0.00 0.00 72 1020.9
20260510184646 17 140 4.8 4.8 0.00 0.00 0.00 70 1020.7
20260510184142 17 359 1.6 3.2 0.00 0.00 0.00 72 1020.5
20260510183638 17 295 0.0 1.6 0.00 0.00 0.00 72 1020.6
20260510183133 18 65 1.6 3.2 0.00 0.00 0.00 71 1020.6
20260510182630 17 305 0.0 1.6 0.00 0.00 0.00 77 1020.6
20260510182125 18 322 0.0 1.6 0.00 0.00 0.00 72 1020.4
20260510181623 17 312 0.0 1.6 0.00 0.00 0.00 74 1020.6
20260510181119 17 271 1.6 1.6 0.00 0.00 0.00 75 1020.2
20260510180615 17 302 0.0 0.0 0.00 0.00 0.00 76 1020.3
20260510180114 17 286 0.0 0.0 0.00 0.00 0.00 73 1020.5
20260510175609 17 257 1.6 1.6 0.00 0.00 0.00 72 1020.6
20260510175105 16 247 1.6 1.6 0.00 0.00 0.00 74 1020.3
20260510174603 16 299 0.0 1.6 0.00 0.00 0.00 78 1020.6
20260510174100 16 268 0.0 1.6 0.00 0.00 0.00 77 1020.4
20260510173555 16 300 0.0 1.6 0.00 0.00 0.00 76 1020.7
20260510173052 16 302 0.0 0.0 0.00 0.00 0.00 78 1020.4
20260510172548 16 297 0.0 0.0 0.00 0.00 0.00 79 1020.2
20260510172044 15 328 0.0 0.0 0.00 0.00 0.00 78 1020.3
20260510171541 16 307 0.0 1.6 0.00 0.00 0.00 77 1020.6
20260510171038 16 297 1.6 1.6 0.00 0.00 0.00 75 1020.2
20260510170534 16 291 0.0 0.0 0.00 0.00 0.00 75 1019.9
20260510170031 16 316 0.0 0.0 0.00 0.00 0.00 76 1020.0
20260510165527 16 268 1.6 1.6 0.00 0.00 0.00 75 1020.0
20260510165023 16 310 0.0 0.0 0.00 0.00 0.00 75 1020.0
20260510164521 16 295 0.0 0.0 0.00 0.00 0.00 75 1020.0
20260510164017 16 318 0.0 0.0 0.00 0.00 0.00 76 1020.2
20260510163512 16 290 0.0 0.0 0.00 0.00 0.00 75 1020.0
20260510163009 15 295 0.0 0.0 0.00 0.00 0.00 74 1020.1
20260510162504 15 311 0.0 0.0 0.00 0.00 0.00 76 1020.2
20260510162001 15 347 1.6 1.6 0.00 0.00 0.00 76 1019.9
20260510161456 15 156 3.2 3.2 0.00 0.00 0.00 74 1020.0
20260510160953 16 318 0.0 0.0 0.00 0.00 0.00 73 1020.1
20260510160445 15 301 0.0 1.6 0.00 0.00 0.00 76 1019.9
20260510155943 15 310 0.0 1.6 0.00 0.00 0.00 76 1019.8
20260510155441 15 301 0.0 0.0 0.00 0.00 0.00 76 1020.1
20260510154937 15 301 0.0 0.0 0.00 0.00 0.00 77 1020.0
20260510154433 15 330 0.0 1.6 0.00 0.00 0.00 76 1020.0
20260510153931 15 297 0.0 1.6 0.00 0.00 0.00 76 1019.8
20260510153429 15 306 0.0 0.0 0.00 0.00 0.00 77 1019.7
20260510152925 14 305 0.0 0.0 0.00 0.00 0.00 78 1020.0
20260510152423 13 297 0.0 0.0 0.00 0.00 0.00 80 1019.7
20260510151919 13 359 0.0 1.6 0.00 0.00 0.00 81 1019.6
20260510151417 13 312 0.0 0.0 0.00 0.00 0.00 83 1019.4
20260510150912 13 309 0.0 0.0 0.00 0.00 0.00 82 1019.3
20260510150408 13 256 1.6 1.6 0.00 0.00 0.00 82 1019.7
20260510145904 13 304 1.6 1.6 0.00 0.00 0.00 82 1019.6
20260510145401 13 312 0.0 1.6 0.00 0.00 0.00 84 1019.5
20260510144857 13 316 0.0 0.0 0.00 0.00 0.00 85 1019.4
20260510144354 13 322 1.6 1.6 0.00 0.00 0.00 86 1019.4
20260510143849 13 322 0.0 0.0 0.00 0.00 0.00 87 1019.3
20260510143345 12 322 0.0 1.6 0.00 0.00 0.00 87 1019.4
20260510142843 12 322 0.0 0.0 0.00 0.00 0.00 88 1019.3
20260510142339 12 321 0.0 0.0 0.00 0.00 0.00 88 1019.0
20260510141836 12 321 0.0 0.0 0.00 0.00 0.00 89 1019.3
20260510141333 12 321 0.0 0.0 0.00 0.00 0.00 90 1018.9
20260510140830 12 321 0.0 0.0 0.00 0.00 0.00 92 1018.8
20260510140326 12 321 0.0 0.0 0.00 0.00 0.00 93 1019.1
20260510135819 11 321 0.0 0.0 0.00 0.00 0.00 94 1019.4
20260510135315 11 321 0.0 0.0 0.00 0.00 0.00 95 1018.9
20260510134813 11 321 0.0 0.0 0.00 0.00 0.00 95 1018.7
20260510134310 11 321 0.0 0.0 0.00 0.00 0.00 95 1018.9
20260510133806 11 320 0.0 0.0 0.00 0.00 0.00 96 1018.7
20260510133302 11 320 0.0 0.0 0.00 0.00 0.00 96 1018.8
20260510132757 11 320 0.0 0.0 0.00 0.00 0.00 96 1018.7
20260510132256 11 320 0.0 0.0 0.00 0.00 0.00 95 1018.8
20260510131752 11 320 0.0 0.0 0.00 0.00 0.00 95 1018.7
20260510131251 11 320 0.0 0.0 0.00 0.00 0.00 95 1018.7
20260510130746 11 320 0.0 0.0 0.00 0.00 0.00 95 1018.7
20260510130244 11 323 0.0 0.0 0.00 0.00 0.00 95 1018.4
20260510125740 11 297 0.0 0.0 0.00 0.00 0.00 95 1018.7
20260510125236 11 297 0.0 0.0 0.00 0.00 0.00 94 1018.8
20260510124733 11 297 0.0 0.0 0.00 0.00 0.00 94 1019.0
20260510124231 11 297 0.0 0.0 0.00 0.00 0.00 94 1018.8
20260510123725 11 297 0.0 0.0 0.00 0.00 0.00 94 1019.1
20260510123222 11 298 0.0 0.0 0.00 0.00 0.00 95 1018.9
20260510122718 11 297 0.0 0.0 0.00 0.00 0.00 95 1018.6
20260510122215 11 296 0.0 0.0 0.00 0.00 0.00 95 1018.7
20260510121711 11 302 0.0 0.0 0.00 0.00 0.00 95 1018.8
20260510121209 11 309 0.0 0.0 0.00 0.00 0.00 96 1018.9
20260510120705 11 310 0.0 0.0 0.00 0.00 0.00 96 1018.9
20260510120202 11 304 0.0 0.0 0.00 0.00 0.00 95 1018.7
20260510115658 11 304 0.0 0.0 0.00 0.00 0.00 95 1018.3
20260510115156 11 304 0.0 0.0 0.00 0.00 0.00 95 1018.6
20260510114651 11 303 0.0 0.0 0.00 0.00 0.00 95 1018.5
20260510114148 11 304 0.0 0.0 0.00 0.00 0.00 95 1018.4
20260510113643 11 308 1.6 1.6 0.00 0.00 0.00 95 1018.4
20260510113140 11 305 0.0 0.0 0.00 0.00 0.00 95 1018.5
20260510112637 11 304 0.0 0.0 0.00 0.00 0.00 95 1018.7
20260510112134 11 311 0.0 0.0 0.00 0.00 0.00 95 1018.3
20260510111630 11 296 0.0 1.6 0.00 0.00 0.00 96 1018.4
20260510111126 11 296 1.6 1.6 0.00 0.00 0.00 96 1018.3
20260510110622 11 296 0.0 0.0 0.00 0.00 0.00 96 1018.1
20260510110119 11 296 0.0 0.0 0.00 0.00 0.00 96 1018.3
20260510105615 11 297 0.0 0.0 0.00 0.00 0.00 95 1018.1
20260510105109 11 297 0.0 0.0 0.00 0.00 0.00 95 1018.1
20260510104606 11 297 0.0 0.0 0.00 0.00 0.00 95 1017.9
20260510104103 11 297 0.0 0.0 0.00 0.00 0.00 94 1017.9
20260510103600 11 297 0.0 0.0 0.00 0.00 0.00 95 1017.9
20260510103056 11 299 0.0 0.0 0.00 0.00 0.00 95 1017.6
20260510102551 11 299 0.0 0.0 0.00 0.00 0.00 93 1017.7
20260510102047 12 299 0.0 0.0 0.00 0.00 0.00 93 1017.8
20260510101545 11 299 0.0 0.0 0.00 0.00 0.00 93 1017.6
20260510101044 11 299 1.6 1.6 0.00 0.00 0.00 94 1017.4
20260510100539 11 299 0.0 0.0 0.00 0.00 0.00 94 1017.1
20260510100037 11 299 0.0 1.6 0.00 0.00 0.00 94 1017.1
20260510095533 11 299 0.0 0.0 0.00 0.00 0.00 94 1017.2
20260510095032 11 299 0.0 0.0 0.00 0.00 0.00 95 1016.9
20260510094527 11 299 0.0 0.0 0.00 0.00 0.00 94 1016.9
20260510094023 11 299 0.0 0.0 0.00 0.00 0.00 94 1017.2
20260510093518 11 299 0.0 0.0 0.00 0.00 0.00 93 1017.2
20260510093015 11 299 0.0 0.0 0.00 0.00 0.00 93 1017.1
20260510092513 11 299 0.0 0.0 0.00 0.00 0.00 92 1017.3
20260510092012 11 299 0.0 0.0 0.00 0.00 0.00 92 1017.3
20260510091509 11 299 0.0 0.0 0.00 0.00 0.00 92 1017.1
20260510091005 11 299 0.0 0.0 0.00 0.00 0.00 91 1017.1
20260510090503 11 299 0.0 0.0 0.00 0.00 0.00 91 1017.2
20260510085957 11 299 0.0 0.0 0.00 0.00 0.00 90 1017.0
20260510085453 11 299 0.0 0.0 0.00 0.00 0.00 90 1017.1
20260510084949 12 299 0.0 0.0 0.00 0.00 0.00 89 1017.2
20260510084446 12 299 0.0 0.0 0.00 0.00 0.00 89 1016.9
20260510083943 12 299 0.0 0.0 0.00 0.00 0.00 88 1016.8
20260510083439 12 299 0.0 0.0 0.00 0.00 0.00 88 1016.9
20260510082934 12 299 0.0 0.0 0.00 0.00 0.00 87 1016.8
20260510082433 12 299 0.0 0.0 0.00 0.00 0.00 87 1016.8
20260510081931 12 299 0.0 0.0 0.00 0.00 0.00 86 1016.8
20260510081427 12 299 0.0 0.0 0.00 0.00 0.00 86 1016.8
20260510080924 12 299 0.0 0.0 0.00 0.00 0.00 86 1016.9
20260510080423 12 299 0.0 0.0 0.00 0.00 0.00 85 1017.0
20260510075920 13 299 0.0 0.0 0.00 0.00 0.00 84 1016.6
20260510075418 13 299 0.0 0.0 0.00 0.00 0.00 83 1016.7
20260510074914 13 299 0.0 0.0 0.00 0.00 0.00 82 1017.0
20260510074412 13 299 0.0 0.0 0.00 0.00 0.00 81 1016.8
20260510073908 13 299 0.0 0.0 0.00 0.00 0.00 81 1016.9
20260510073403 13 299 0.0 0.0 0.00 0.00 0.00 81 1016.8
20260510072900 13 299 0.0 0.0 0.00 0.00 0.00 81 1016.7
20260510072357 14 299 0.0 0.0 0.00 0.00 0.00 79 1016.9
20260510071852 14 299 0.0 0.0 0.00 0.00 0.00 78 1016.7
20260510071349 14 299 0.0 0.0 0.00 0.00 0.00 78 1016.8
20260510070848 15 299 0.0 0.0 0.00 0.00 0.00 77 1016.6
20260510070344 15 299 0.0 0.0 0.00 0.00 0.00 77 1016.9
20260510065844 15 299 0.0 0.0 0.00 0.00 0.00 75 1016.8
20260510065341 15 299 0.0 0.0 0.00 0.00 0.00 75 1016.7
20260510064838 15 299 0.0 0.0 0.00 0.00 0.00 75 1016.6
20260510064336 15 299 0.0 0.0 0.00 0.00 0.00 75 1016.6
20260510063832 15 299 0.0 0.0 0.00 0.00 0.00 74 1016.7
20260510063329 15 299 0.0 0.0 0.00 0.00 0.00 73 1016.6
20260510062825 15 299 0.0 0.0 0.00 0.00 0.00 72 1016.6
20260510062321 16 299 0.0 0.0 0.00 0.00 0.00 72 1016.5
20260510061816 16 299 0.0 0.0 0.00 0.00 0.00 71 1016.5
20260510061314 16 299 0.0 0.0 0.00 0.00 0.00 70 1016.5
20260510060809 16 299 0.0 0.0 0.00 0.00 0.00 68 1016.6
20260510060307 17 299 0.0 0.0 0.00 0.00 0.00 67 1016.7
20260510055803 17 300 0.0 0.0 0.00 0.00 0.00 66 1016.4
20260510055306 17 310 0.0 0.0 0.00 0.00 0.00 64 1016.5
20260510054801 18 277 0.0 0.0 0.00 0.00 0.00 63 1016.4
20260510054257 18 276 0.0 0.0 0.00 0.00 0.00 63 1016.5
20260510053752 18 284 1.6 1.6 0.00 0.00 0.00 62 1016.5
20260510053248 18 289 0.0 0.0 0.00 0.00 0.00 63 1016.3
20260510052744 18 254 1.6 1.6 0.00 0.00 0.00 63 1016.4
20260510052240 18 307 1.6 1.6 0.00 0.00 0.00 63 1016.6
20260510051736 18 292 0.0 0.0 0.00 0.00 0.00 62 1016.5
20260510051233 18 311 0.0 1.6 0.00 0.00 0.00 62 1016.7
20260510050730 18 318 0.0 0.0 0.00 0.00 0.00 62 1016.6
20260510050227 18 293 0.0 1.6 0.00 0.00 0.00 62 1016.7
20260510045724 18 305 0.0 0.0 0.00 0.00 0.00 62 1016.4
20260510045220 19 300 0.0 1.6 0.00 0.00 0.00 62 1016.2
20260510044717 18 310 1.6 3.2 0.00 0.00 0.00 61 1016.4
20260510044215 19 296 0.0 0.0 0.00 0.00 0.00 61 1016.2
20260510043710 18 301 0.0 0.0 0.00 0.00 0.00 61 1016.4
20260510043207 19 294 0.0 0.0 0.00 0.00 0.00 61 1016.3
20260510042704 19 292 0.0 0.0 0.00 0.00 0.00 61 1016.2
20260510042200 19 316 0.0 0.0 0.00 0.00 0.00 60 1016.0
20260510041657 19 308 0.0 0.0 0.00 0.00 0.00 60 1016.1
20260510041154 19 299 0.0 1.6 0.00 0.00 0.00 60 1015.9
20260510040651 19 312 1.6 1.6 0.00 0.00 0.00 59 1015.6
20260510040148 20 301 0.0 1.6 0.00 0.00 0.00 58 1015.7
20260510035643 20 297 0.0 1.6 0.00 0.00 0.00 57 1015.8
20260510035139 20 308 0.0 0.0 0.00 0.00 0.00 58 1015.8
20260510034636 20 299 0.0 0.0 0.00 0.00 0.00 56 1015.6
20260510034133 20 313 0.0 0.0 0.00 0.00 0.00 56 1015.5
20260510033629 20 306 0.0 0.0 0.00 0.00 0.00 55 1015.7
20260510033127 20 291 0.0 1.6 0.00 0.00 0.00 55 1015.5
20260510032623 20 304 1.6 1.6 0.00 0.00 0.00 55 1015.5
20260510032119 20 304 0.0 0.0 0.00 0.00 0.00 55 1015.5
20260510031614 20 293 0.0 1.6 0.00 0.00 0.00 54 1015.6
20260510031111 20 315 0.0 0.0 0.00 0.00 0.00 53 1015.4
20260510030605 21 295 0.0 1.6 0.00 0.00 0.00 53 1015.4
20260510030103 21 292 0.0 0.0 0.00 0.00 0.00 53 1015.5
20260510025600 21 292 0.0 0.0 0.00 0.00 0.00 51 1015.6
20260510025058 21 302 0.0 0.0 0.00 0.00 0.00 51 1015.5
20260510024554 21 307 1.6 3.2 0.00 0.00 0.00 50 1015.3
20260510024050 22 301 0.0 0.0 0.00 0.00 0.00 49 1015.6
20260510023547 22 302 0.0 0.0 0.00 0.00 0.00 48 1015.5
20260510023044 22 317 1.6 1.6 0.00 0.00 0.00 47 1015.5
20260510022543 22 298 0.0 0.0 0.00 0.00 0.00 46 1015.5
20260510022038 22 243 1.6 1.6 0.00 0.00 0.00 46 1015.7
20260510021535 22 300 0.0 1.6 0.00 0.00 0.00 43 1015.4
20260510021032 22 299 0.0 0.0 0.00 0.00 0.00 41 1015.6
20260510020526 22 259 1.6 1.6 0.00 0.00 0.00 41 1015.7
20260510020022 22 287 0.0 0.0 0.00 0.00 0.00 41 1015.6
20260510015518 23 303 0.0 0.0 0.00 0.00 0.00 39 1015.5
20260510015014 23 303 0.0 0.0 0.00 0.00 0.00 41 1015.5
20260510014511 23 304 0.0 1.6 0.00 0.00 0.00 42 1015.5
20260510014008 23 302 1.6 1.6 0.00 0.00 0.00 41 1015.6
20260510013502 23 293 0.0 1.6 0.00 0.00 0.00 40 1015.8
20260510012958 24 302 0.0 0.0 0.00 0.00 0.00 41 1015.6
20260510012447 24 291 1.6 1.6 0.00 0.00 0.00 40 1015.8
20260510011942 24 307 0.0 0.0 0.00 0.00 0.00 40 1016.0
20260510011437 24 302 0.0 1.6 0.00 0.00 0.00 38 1016.0
20260510010934 25 303 0.0 1.6 0.00 0.00 0.00 36 1015.7
20260510010431 25 298 1.6 1.6 0.00 0.00 0.00 35 1015.9
20260510005928 25 302 1.6 1.6 0.00 0.00 0.00 33 1015.6
20260510005424 25 302 0.0 1.6 0.00 0.00 0.00 32 1015.8
20260510004921 25 304 0.0 0.0 0.00 0.00 0.00 31 1015.7
20260510004419 25 307 1.6 3.2 0.00 0.00 0.00 30 1015.9
20260510003916 25 304 0.0 1.6 0.00 0.00 0.00 29 1015.9
20260510003414 25 305 1.6 1.6 0.00 0.00 0.00 31 1015.7
20260510002912 25 293 3.2 4.8 0.00 0.00 0.00 29 1015.9
20260510002410 25 296 0.0 1.6 0.00 0.00 0.00 30 1016.0
20260510001906 25 306 0.0 0.0 0.00 0.00 0.00 32 1016.2
20260510001404 25 307 1.6 1.6 0.00 0.00 0.00 32 1016.0
20260510000900 25 306 1.6 1.6 0.00 0.00 0.00 31 1015.8
20260510000357 25 300 1.6 1.6 0.00 0.00 0.00 29 1016.0
20260509235853 25 307 1.6 1.6 0.00 0.00 0.00 31 1016.0
20260509235350 25 312 0.0 1.6 0.00 0.00 0.00 33 1016.1
20260509234846 25 309 3.2 3.2 0.00 0.00 0.00 29 1016.2
20260509234343 25 298 0.0 1.6 0.00 0.00 0.00 29 1016.1
20260509233842 25 303 0.0 0.0 0.00 0.00 0.00 30 1016.3
20260509233339 25 294 1.6 1.6 0.00 0.00 0.00 31 1016.3
20260509232834 25 313 0.0 0.0 0.00 0.00 0.00 29 1016.2
20260509232333 25 310 0.0 0.0 0.00 0.00 0.00 27 1016.2
20260509231828 25 293 0.0 0.0 0.00 0.00 0.00 31 1016.5
20260509231325 25 293 1.6 1.6 0.00 0.00 0.00 28 1016.5
20260509230823 25 306 0.0 1.6 0.00 0.00 0.00 31 1016.6
20260509230320 25 300 0.0 1.6 0.00 0.00 0.00 30 1016.6
20260509225815 25 296 0.0 1.6 0.00 0.00 0.00 33 1017.0
20260509225312 24 297 1.6 1.6 0.00 0.00 0.00 34 1016.8